Regional Weather Roundup
Issued by NWS

Home | Current Version | Previous Version | Graphics & Text | Print | Product List | Glossary On
Versions: 1 2 3 4 5 6 7 8 9 10 11 12 13 14 15 16 17 18 19 20 21 22 23 24 25 26 27 28 29 30 31 32 33 34 35 36 37 38 39 40 41 42 43 44 45 46 47 48 49 50
000
ASUS43 KMKX 220300
RWRWI

WISCONSIN REGIONAL WEATHER ROUNDUP
NATIONAL WEATHER SERVICE MILWAUKEE/SULLIVAN WI
1000 PM CDT THU AUG 21 2014

NOTE: "FAIR" INDICATES FEW OR NO CLOUDS BELOW 12,000 FEET WITH NO
SIGNIFICANT WEATHER AND/OR OBSTRUCTIONS TO VISIBILITY.

WIZ001-002-006>008-014>016-023>028-220400-
NORTHWEST WISCONSIN

CITY           SKY/WX    TMP DP  RH WIND       PRES   REMARKS
SUPERIOR ARPT  CLOUDY    61  60  97 NE10G17   29.91S
ASHLAND        CLOUDY    65  63  93 N5        29.91S
HAYWARD        CLOUDY    70  67  90 E5        29.90S
SIREN          CLOUDY    72  70  94 NE3       29.87S
RICE LAKE      CLOUDY    71  69  93 E10       29.89S
LADYSMITH      RAIN      69  68  94 E6        29.92S
EAU CLAIRE     NOT AVBL
MENOMONIE      MOCLDY    74  72  92 E3        29.86S
NEW RICHMOND   MOCLDY    73  72  97 E3        29.85S
OSCEOLA        CLOUDY    73  73 100 CALM      29.86F
$$

WIZ003>005-009-010-017-018-220400-
NORTH CENTRAL WISCONSIN

CITY           SKY/WX    TMP DP  RH WIND       PRES   REMARKS
WOODRUFF       CLOUDY    67  64  89 SE6       29.95S
RHINELANDER    CLOUDY    64  63  96 E9        29.97S
EAGLE RIVER    CLOUDY    64  63  96 SE6       29.97R
LAND O LAKES   CLOUDY    65  63  90 CALM      29.98R
PHILLIPS       CLOUDY    66  65  96 SE6       29.93S
TOMAHAWK       CLOUDY    65  63  93 SE5       29.95S FOG
MEDFORD        CLOUDY    67  66  98 E5        29.94R FOG
MERRILL        CLOUDY    65  65 100 SE6       29.94F FOG
$$

WIZ029-030-035-036-043>047-220400-
CENTRAL WISCONSIN

CITY           SKY/WX    TMP DP  RH WIND       PRES   REMARKS
WAUSAU         CLOUDY    65  65 100 E9        29.92S FOG
MOSINEE        FOG       66  66 100 E8        29.95S VSB 1/4
MARSHFIELD     CLOUDY    73  70  90 E3        29.92R
STEVENS POINT  CLOUDY    67  66  95 E9        29.94R FOG
WAUPACA        CLOUDY    72  69  92 E3        29.94F
WAUTOMA        NOT AVBL
WISC RAPIDS    MOCLDY    73  70  90 SE7       29.92F
CAMP DOUGLAS   NOT AVBL
$$

WIZ011>013-019>022-031-037>040-048>050-220400-
NORTHEAST WISCONSIN

CITY           SKY/WX    TMP DP  RH WIND       PRES   REMARKS
ANTIGO         CLOUDY    63  62  97 SE8       29.97S
STURGEON BAY   CLOUDY    64  61  88 E6        29.97S
GREEN BAY      CLOUDY    67  65  93 E5        29.95F
MANITOWOC      NOT AVBL
APPLETON       CLOUDY    70  66  88 VRB5      29.95F FOG
CLINTONVILLE   CLOUDY    66  63  88 E5        29.94S
OSHKOSH        PTCLDY    71  69  93 SE7       29.93S
$$

WIZ032>034-041-042-053>061-220400-
SOUTHWEST WISCONSIN

CITY           SKY/WX    TMP DP  RH WIND       PRES   REMARKS
LA CROSSE      PTCLDY    77  71  82 SE8       29.87R
SPARTA         PTCLDY    73  71  93 SE3       29.90S
VIROQUA        FAIR      72  72 100 SE5       29.91S
BOSCOBEL       PTCLDY    73  70  90 CALM      29.90S FOG
PRAIRIE DU CHI PTCLDY    73  71  91 CALM      29.89R
PLATTEVILLE    FAIR      73  71  95 E6        29.93S
$$

WIZ056-057-062-063-064-067-068-220400-
SOUTH CENTRAL WISCONSIN

CITY           SKY/WX    TMP DP  RH WIND       PRES   REMARKS
BARABOO/DELLS  PTCLDY    73  70  91 CALM      29.92S
LONE ROCK      NOT AVBL
WATERTOWN      MOCLDY    72  72 100 E3        29.94S
MADISON        CLOUDY    76  72  87 S5        29.93R
MIDDLETON      CLOUDY    76  75  96 CALM      29.94R
MONROE         PTCLDY    72  72 100 CALM      29.95R
JANESVILLE     MOCLDY    73  72  94 CALM      29.93S FOG
$$

WIZ051-052-058>065-066-070>072-220400-
SOUTHEAST WISCONSIN

CITY           SKY/WX    TMP DP  RH WIND       PRES   REMARKS
MILWAUKEE      CLOUDY    72  69  90 SE3       29.95R
WAUKESHA       PTCLDY    70  68  94 SE6       29.96R
MILWAUKEE/TIMM CLOUDY    70  66  88 CALM      29.96R
RACINE         CLOUDY    72  69  90 CALM      29.96S
BURLINGTON     MOCLDY    69  68  98 CALM      29.94S FOG
KENOSHA        MOCLDY    72  71  97 SE3       29.95R FOG
FOND DU LAC    MOCLDY    72  68  87 SE3       29.94S
SHEBOYGAN      FOG       67  66  97 CALM      29.96S VSB 1/4
WEST BEND      CLOUDY    68  64  88 SE3       29.95F FOG
JUNEAU         CLOUDY    72  45  38 E5        29.95S
$$

LSZ147-162-220400-
LAKE SUPERIOR

STATION/POSITION TIME  TEMP    WIND        PRES    WAVE
                       AIR SEA DIR/SP/G            HT/PER
                 (UTC) (F)     (DEG/KT/KT) (MB)    (FT/S)
W MID LAKE BUOY  0150   58 58   50/ 14/ 16 1013.4R   2/ 4
DEVILS ISLAND    0200   61      60/ 15/ 18 1012.8R
PORT WING        0200   62      40/ 14/ 16 1012.5R
SAXON HARBOR     0200   66        CALM     1012.2
$$

LMZ867-665-643>646-220400-
LAKE MICHIGAN

STATION/POSITION TIME  TEMP    WIND        PRES    WAVE
                       AIR SEA DIR/SP/G            HT/PER
                 (UTC) (F)     (DEG/KT/KT) (MB)    (FT/S)
N MID LAKE BUOY  0150   65 65   80/  6/  8 1014.2R   0
NORTHPORT PIER   0200   66      90/  2/  4 1014.9R
SISTER BAY       0141   66     100/  7/  9   N/A
ALGOMA LAKESHORE 0208           50/  5/  7   N/A
KEWAUNEE LAKESHO 0200   65      50/  1/  3 1013.7R
SHEBOYGAN LAKESH 0200   66 65  100/  4/  4 1014.7R
ATWATER BUOY     0200   70      70/  2/  4 1015.2R
MILWAUKEE LAKESH 0200   70     140/  6/  7   N/A
S MID LAKE BUOY  0150   69 68   90/  4/  6 1013.9R   0
KENOSHA   LAKESH 0200   71     160/  1/  2 1013.5R
$$

TC  - TEMPERATURE IN CELSIUS
VSB - VISIBILITY IN STATUTE MILES
WCI - WIND CHILL INDEX
HX  - HEAT INDEX



USA.gov is the U.S. government's official web portal to all federal, state and local government web resources and services.